STARLINK-11333 [DTC] (62273 NORAD) Tracking and Keplerian Element Data

This shows tracking and keplerian element data for the satellite.

Feedback or suggestion? Click here.




ElementValue
Catalog62273
NameSTARLINK-11333 [DTC]
Epoch Orbit1036
Epoch Day35.12499311
Epoch Year2025
RAAN299.4529
Inclination43.0007
Eccentricity0.0001063
Argument of Perigee270.8917
Mean Anonmoly89.1829
Mean Motion15.70834749
Decay Rate3.646E-05
L11 62273U 24237G 25035.12499311 .00003646 00000+0 31897-4 0 9993
L22 62273 43.0007 299.4529 0001063 270.8917 89.1829 15.70834749 10365



Live tracking and technical data element details for STARLINK-11333 [DTC] (NORAD 62273). STARLINK-11333 [DTC] can be tracked NOW for your location showing map with azimuth and elevation plus other details from your city location.







IsCatalogInMostPopularTable: catalog: 62273, numindb: 14
Update: records affected: 1



GetName: 62273 STARLINK-11333 [DTC]

Hit Count: updated at: Sun, 18 May 2025 23:43:35 GMT